[[{"header":{"parameterUnit":"m.s-1","parameterCategory":1,"la1":30.2991,"la2":30.254,"lo1":-89.0895,"lo2":-89.0444,"dy":0.0017,"dx":0.0017,"nx":28,"ny":28,"refTime":"2024-05-20T03:00:00:Z","depth":0,"parameterNumber":2,"parameterNumberName":"U-component_of_WINDS"},"data":[0,0,0,0,0,0,0,0,0,0,0,0,0,0,0,0,0,0,0,0,0,0,0,0,0,0,0,0,0,0,0,0,0,0,0,0,0,0,0,0,0,0,0,0,0,0,0,0,0,0,0,0,0,0,0,0,0,0,0.563,0.563,0,0.5697,0.5698,0.5699,0.5705,0.5704,0.5703,0.5703,0.577,0.5772,0.5775,0,0,0,0,0,0,0,0,0,0,0,0,0,0.5505,0.5507,0.563,0.5631,0.5631,0.5697,0.5698,0.5699,0.5705,0.5704,0.5703,0.5702,0.5769,0.5772,0.5775,0,0,0,0,0,0,0,0,0,0,0,0,0,0.5565,0.5508,0.563,0.5642,0.5644,0.5697,0.5698,0.5699,0.5705,0.5704,0.5703,0.5702,0.5768,0.5772,0.5775,0.5819,0,0,0.5787,0.5788,0,0,0,0,0,0,0,0,0.5561,0.5569,0.564,0.5642,0.5644,0.5691,0.5679,0.5739,0.5705,0.5682,0.5703,0.5701,0.5745,0.575,0.5765,0.5822,0.5825,0.5787,0.5789,0.5791,0.5792,0,0,0,0,0,0,0,0.5557,0.5566,0.5656,0.5641,0.5643,0.5644,0.5652,0.569,0.5718,0.5684,0.5684,0.5692,0.5745,0.5761,0.5767,0.5826,0.5787,0.579,0.5792,0.5794,0.5923,0.5925,0,0,0,0,0,0,0.5551,0.5563,0.5654,0.5658,0.5599,0.5647,0.5656,0.5677,0.5718,0.5723,0.5693,0.5692,0.5756,0.5762,0.5769,0.5823,0.5791,0.5794,0.5796,0.5922,0.5924,0.5925,0,0,0,0,0,0,0.5548,0.5559,0.5651,0.5611,0.5623,0.5651,0.5675,0.5679,0.5695,0.5725,0.573,0.5704,0.5755,0.5764,0.5807,0.5825,0.5796,0.5799,0.5921,0.5923,0.5924,0.5931,0,0,0,0,0,0,0.5544,0.5558,0.5575,0.5611,0.5625,0.5688,0.5676,0.5681,0.5702,0.5701,0.5737,0.5742,0.5755,0.5801,0.5811,0.583,0.5802,0.5919,0.5922,0.5924,0.5929,0.5933,0.5936,0,0,0,0,0,0.554,0.5574,0.5576,0.5587,0.5647,0.5689,0.5697,0.5712,0.5703,0.572,0.574,0.5741,0.5822,0.5806,0.5816,0.5837,0.5918,0.5921,0.5924,0.5928,0.5932,0.5936,0,0,0,0,0,0,0.5538,0.5578,0.5581,0.5628,0.5655,0.569,0.5712,0.5716,0.5746,0.5745,0.5762,0.577,0.5812,0.5829,0.581,0.5882,0.5869,0.5874,0.5869,0.5873,0.5876,0.5871,0.5805,0,0,0,0,0,0.5543,0.5575,0.5608,0.5646,0.566,0.5684,0.5703,0.5712,0.5741,0.5753,0.5775,0.5803,0.5835,0.5855,0.5886,0.5932,0.594,0.5952,0.5955,0.5958,0.5961,0.5987,0.5992,0.5934,0.5934,0.5934,0,0,0.5553,0.5579,0.5598,0.5646,0.5669,0.5701,0.5693,0.5727,0.5751,0.5758,0.5799,0.5817,0.5849,0.5894,0.5915,0.5909,0.598,0.5961,0.5963,0.5965,0.599,0.5996,0.6001,0.5936,0.5936,0.5935,0,0,0.5588,0.5612,0.5645,0.5669,0.5703,0.5719,0.5727,0.5762,0.5775,0.5817,0.5823,0.5851,0.5906,0.5929,0.5947,0.5993,0.5994,0.6002,0.6019,0.6044,0.6048,0.6053,0.6068,0.6073,0.6006,0.6006,0.6006,0,0.5596,0.5645,0.5662,0.5696,0.5717,0.5726,0.576,0.5782,0.5824,0.5838,0.5832,0.5901,0.5923,0.5973,0.5984,0.6,0.6009,0.5997,0.6047,0.6051,0.6055,0.607,0.6076,0.6007,0.6007,0.6007,0.6007,0,0.5653,0.5687,0.571,0.5752,0.5776,0.581,0.5832,0.5854,0.5862,0.5879,0.5922,0.5949,0.5986,0.5999,0.6007,0.6051,0.6046,0.6043,0.6031,0.6061,0.6075,0.6081,0.6008,0.6008,0.6007,0.6007,0,0,0.5686,0.5739,0.5747,0.5766,0.5805,0.5831,0.5866,0.5903,0.5921,0.5951,0.598,0.6027,0.6025,0.6046,0.6056,0.6078,0.6112,0.6073,0.6074,0.6078,0.6161,0.6162,0.6169,0.6114,0.6116,0.6116,0.6158,0,0.5725,0.5787,0.5804,0.5857,0.5888,0.5898,0.5928,0.5955,0.5973,0.6001,0.602,0.6053,0.6048,0.6061,0.6083,0.6103,0.6129,0.6101,0.6141,0.6142,0.6131,0.6176,0.6177,0.6216,0.6164,0.6165,0.6166,0,0.5777,0.5809,0.5865,0.5901,0.5915,0.5942,0.5977,0.6005,0.6036,0.6047,0.6072,0.6081,0.6117,0.6104,0.6154,0.6135,0.6153,0.6165,0.6167,0.617,0.6154,0.6179,0.6228,0.6233,0.6175,0.6174,0.6174,0,0.5795,0.5851,0.5892,0.5908,0.5952,0.597,0.5989,0.602,0.6041,0.6072,0.6086,0.6121,0.614,0.6166,0.6184,0.6173,0.6233,0.6221,0.6242,0.6242,0.6253,0.6251,0.6304,0.6267,0.6266,0.6266,0.6266,0,0.5835,0.5868,0.59,0.5925,0.5963,0.5983,0.602,0.6039,0.6067,0.6095,0.6106,0.6133,0.6156,0.6186,0.62,0.6239,0.6248,0.6257,0.626,0.6255,0.6254,0.6266,0.6263,0.6268,0.6268,0.6267,0.6267,0,0.5859,0.5882,0.5927,0.5966,0.5976,0.6002,0.6035,0.6059,0.6078,0.6114,0.6123,0.6152,0.6187,0.6209,0.6253,0.6263,0.6306,0.6309,0.6295,0.6297,0.6316,0.6313,0.6376,0.6385,0.6343,0.6344,0.6344,0,0.5883,0.5909,0.595,0.5971,0.599,0.6023,0.6045,0.6066,0.6088,0.6127,0.6147,0.6184,0.6214,0.627,0.6294,0.6329,0.6332,0.6352,0.6337,0.6331,0.6331,0.6328,0.6331,0.6353,0.6354,0.6354,0.6354,0,0.5921,0.5932,0.5963,0.6,0.6026,0.6055,0.6085,0.6101,0.6127,0.6152,0.6189,0.6212,0.6259,0.6295,0.6332,0.6351,0.6357,0.6359,0.6366,0.636,0.6351,0.6355,0.6301,0.6357,0.6357,0.6357,0.6356,0.6356,0.5945,0.5969,0.6002,0.6037,0.6062,0.6089,0.6114,0.6136,0.6168,0.6208,0.6219,0.6257,0.6289,0.6339,0.636,0.639,0.6387,0.6396,0.6398,0.64,0.64,0.6347,0.6397,0.6397,0.6397,0.6397,0.6397,0,0.5983,0.6005,0.6038,0.6079,0.6107,0.6112,0.6145,0.6167,0.6202,0.6231,0.6261,0.6304,0.6339,0.6367,0.6403,0.6422,0.6426,0.6431,0.6429,0.6433,0.6401,0.6391,0.6427,0.6427,0.6427,0.6427,0.6427,0.6427,0.6006,0.6046,0.6061,0.6114,0.6136,0.6175,0.6193,0.6219,0.6242,0.629,0.632,0.6338,0.6367,0.6406,0.6438,0.6446,0.6458,0.6462,0.647,0.6439,0.6436,0.6432,0.6423,0.6465,0.6465,0.65,0.65,0.65]},{"header":{"parameterUnit":"m.s-1","parameterCategory":1,"la1":30.2991,"la2":30.254,"lo1":-89.0895,"lo2":-89.0444,"dy":0.0017,"dx":0.0017,"nx":28,"ny":28,"refTime":"2024-05-20T03:00:00:Z","depth":0,"parameterNumber":3,"parameterNumberName":"V-component_of_WINDS"},"data":[0,0,0,0,0,0,0,0,0,0,0,0,0,0,0,0,0,0,0,0,0,0,0,0,0,0,0,0,0,0,0,0,0,0,0,0,0,0,0,0,0,0,0,0,0,0,0,0,0,0,0,0,0,0,0,0,0,0,2.3994,2.3994,0,2.3964,2.3964,2.3964,2.3898,2.3896,2.3895,2.3894,2.3866,2.3866,2.3867,0,0,0,0,0,0,0,0,0,0,0,0,0,2.3996,2.3996,2.3994,2.3993,2.3993,2.3964,2.3964,2.3964,2.3898,2.3896,2.3895,2.3893,2.3866,2.3866,2.3867,0,0,0,0,0,0,0,0,0,0,0,0,0,2.3984,2.3996,2.3994,2.3957,2.3953,2.3965,2.3964,2.3964,2.3898,2.3896,2.3894,2.3892,2.3866,2.3866,2.3867,2.3913,0,0,2.387,2.387,0,0,0,0,0,0,0,0,2.3985,2.3984,2.3963,2.3959,2.3955,2.3933,2.3954,2.3947,2.3899,2.3919,2.3894,2.3891,2.389,2.3889,2.3888,2.3911,2.391,2.387,2.387,2.387,2.3871,0,0,0,0,0,0,0,2.3985,2.3985,2.3982,2.3962,2.3958,2.3943,2.3939,2.3953,2.3917,2.3917,2.3913,2.391,2.3888,2.3887,2.3887,2.391,2.387,2.387,2.3871,2.3871,2.397,2.3972,0,0,0,0,0,0,2.3991,2.3986,2.3983,2.3981,2.3965,2.3944,2.394,2.3942,2.3916,2.391,2.3912,2.3907,2.3887,2.3886,2.3885,2.3936,2.387,2.3871,2.3872,2.3968,2.397,2.3972,0,0,0,0,0,0,2.3992,2.3992,2.3984,2.3982,2.398,2.3946,2.3949,2.3943,2.3942,2.3912,2.3905,2.3917,2.3885,2.3884,2.3906,2.3934,2.3872,2.3872,2.3965,2.3968,2.3971,2.4039,0,0,0,0,0,0,2.3992,2.3992,2.4008,2.3983,2.398,2.4005,2.3951,2.3943,2.3943,2.3937,2.3915,2.391,2.3883,2.3905,2.3907,2.3934,2.3873,2.3962,2.3966,2.397,2.4034,2.4044,2.4053,0,0,0,0,0,2.3992,2.4029,2.401,2.401,2.4,2.4007,2.4005,2.3973,2.3946,2.3962,2.3943,2.3911,2.3932,2.3908,2.3909,2.3937,2.396,2.3965,2.397,2.403,2.4042,2.4053,0,0,0,0,0,0,2.4059,2.4025,2.4003,2.4033,2.4023,2.3996,2.4015,2.3987,2.3986,2.398,2.3941,2.3937,2.3964,2.3953,2.3928,2.398,2.3941,2.3946,2.3986,2.3997,2.4007,2.4008,2.3873,0,0,0,0,0,2.4077,2.4085,2.4055,2.4084,2.4081,2.4049,2.4051,2.4027,2.4016,2.4012,2.3994,2.3985,2.3989,2.3993,2.3996,2.4033,2.4027,2.4053,2.4062,2.407,2.4075,2.4093,2.4104,2.3988,2.3988,2.3988,0,0,2.4115,2.4097,2.4105,2.4097,2.4087,2.4096,2.4046,2.4058,2.4065,2.4014,2.4033,2.402,2.4008,2.4037,2.405,2.4029,2.4106,2.4076,2.4083,2.4083,2.41,2.4111,2.412,2.3992,2.3991,2.399,0,0,2.4188,2.4176,2.4198,2.4189,2.4174,2.4153,2.4159,2.4136,2.4125,2.4143,2.4105,2.4114,2.4122,2.4115,2.4112,2.4184,2.4154,2.4186,2.4234,2.4253,2.4262,2.427,2.4294,2.4304,2.4191,2.4191,2.4191,0,2.4236,2.4248,2.4213,2.4228,2.4226,2.418,2.4203,2.4196,2.4183,2.4183,2.4161,2.417,2.4159,2.4186,2.4204,2.4203,2.4209,2.4187,2.4263,2.4271,2.4278,2.4301,2.431,2.4195,2.4195,2.4194,2.4194,0,2.4308,2.4317,2.4337,2.4325,2.4326,2.4345,2.4314,2.4319,2.4296,2.4277,2.4297,2.4282,2.4281,2.4286,2.4264,2.431,2.4298,2.427,2.4229,2.4293,2.4314,2.4323,2.4201,2.4199,2.4198,2.4197,0,0,2.442,2.4389,2.4397,2.4391,2.4372,2.4378,2.4396,2.4394,2.4399,2.4392,2.4406,2.4415,2.4389,2.4386,2.4363,2.438,2.4436,2.4349,2.4348,2.4365,2.4486,2.4506,2.4517,2.4418,2.4419,2.442,2.4487,0,2.4487,2.4513,2.4483,2.4516,2.4524,2.4482,2.4497,2.4487,2.4471,2.4477,2.4459,2.4466,2.4432,2.4429,2.4444,2.4426,2.446,2.4421,2.4429,2.443,2.4432,2.4528,2.4549,2.4612,2.4495,2.4496,2.4497,0,2.4568,2.4564,2.4598,2.4577,2.4579,2.4593,2.4589,2.4594,2.4583,2.4571,2.4568,2.454,2.4557,2.4519,2.4541,2.4515,2.4517,2.4509,2.4511,2.4509,2.4466,2.4527,2.4632,2.4641,2.451,2.4509,2.4508,0,2.4645,2.4649,2.4669,2.4665,2.4642,2.4653,2.4644,2.463,2.4631,2.4628,2.4628,2.4628,2.4628,2.4628,2.4602,2.4576,2.4627,2.4587,2.4617,2.4618,2.4628,2.4627,2.4732,2.4632,2.4632,2.4632,2.4631,0,2.4722,2.4744,2.4703,2.4715,2.4739,2.4706,2.473,2.4717,2.4706,2.4716,2.468,2.469,2.4655,2.4662,2.4641,2.4662,2.4663,2.4653,2.4647,2.4655,2.4656,2.4655,2.4649,2.4634,2.4634,2.4633,2.4633,0,2.481,2.4784,2.4803,2.478,2.4774,2.4793,2.4773,2.4784,2.4766,2.4779,2.478,2.4753,2.4759,2.4733,2.4735,2.4721,2.4752,2.474,2.4755,2.4751,2.4782,2.4779,2.4888,2.4901,2.4794,2.4795,2.4796,0,2.486,2.4876,2.4854,2.4857,2.485,2.4856,2.4857,2.4826,2.4828,2.4817,2.4829,2.4832,2.4833,2.4845,2.4825,2.4827,2.4813,2.4852,2.4813,2.4821,2.4812,2.4811,2.4812,2.4859,2.486,2.4861,2.4862,0,2.4951,2.4937,2.4939,2.4937,2.4939,2.4935,2.493,2.4935,2.4901,2.4906,2.4911,2.4912,2.4914,2.4917,2.4915,2.4906,2.4879,2.4875,2.4882,2.4889,2.4897,2.4892,2.4776,2.4872,2.4871,2.487,2.487,2.487,2.5021,2.5033,2.5019,2.5022,2.5015,2.5011,2.502,2.5004,2.5007,2.5006,2.4987,2.4996,2.4986,2.498,2.4974,2.4981,2.4963,2.4973,2.4976,2.4978,2.4983,2.4898,2.4981,2.4981,2.498,2.498,2.498,0,2.5108,2.5098,2.5102,2.5095,2.5098,2.5072,2.5065,2.5069,2.5077,2.507,2.5071,2.5078,2.5081,2.5063,2.5064,2.5073,2.5061,2.5075,2.5073,2.5071,2.5,2.4993,2.5085,2.5085,2.5085,2.5084,2.5084,2.5084,2.5154,2.5173,2.5158,2.5174,2.5163,2.5171,2.5169,2.5165,2.5159,2.5168,2.517,2.5158,2.5146,2.5146,2.5149,2.5143,2.5145,2.5163,2.5153,2.5086,2.5076,2.5066,2.506,2.5164,2.5164,2.5224,2.5224,2.5225]}]]